FW1747 Weather Reports


Display with metric or nautical units.
time (UTC)temp
F
wind
direction
speed
MPH
gust
MPH
rain 1hr
in
rain 24hr
in
rain mn
in
humidity
%
barometer
mb
20260508164554 52 174 0.0 0.0 0.00 0.00 0.00 71 1022.2
20260508163053 52 191 0.0 0.0 0.00 0.00 0.00 72 1022.1
20260508161550 52 206 0.0 0.0 0.00 0.00 0.00 73 1021.9
20260508160114 52 229 0.0 0.0 0.00 0.00 0.00 73 1021.5
20260508154551 51 83 0.0 0.0 0.00 0.00 0.00 75 1021.9
20260508153049 51 131 0.0 0.0 0.00 0.00 0.00 77 1021.7
20260508151551 48 158 0.0 1.0 0.00 0.00 0.00 80 1021.7
20260508150048 48 131 0.0 0.0 0.00 0.00 0.00 79 1021.7
20260508144548 49 79 0.0 0.0 0.00 0.00 0.00 78 1021.8
20260508143059 49 181 0.0 0.0 0.00 0.00 0.00 78 1021.9
20260508141554 48 181 0.0 0.0 0.00 0.00 0.00 79 1021.8
20260508140048 47 181 0.0 0.0 0.00 0.00 0.00 80 1021.9
20260508134543 47 181 0.0 0.0 0.00 0.00 0.00 80 1021.5
20260508133052 46 181 0.0 0.0 0.00 0.00 0.00 80 1021.2
20260508131539 46 203 0.0 0.0 0.00 0.00 0.00 80 1020.9
20260508130036 46 181 0.0 0.0 0.00 0.00 0.00 79 1020.7
20260508124533 46 191 0.0 0.0 0.00 0.00 0.00 79 1020.5
20260508123032 47 217 0.0 0.0 0.00 0.00 0.00 78 1020.3
20260508121551 47 196 0.0 0.0 0.00 0.00 0.00 78 1019.9
20260508120031 47 287 0.0 0.0 0.00 0.00 0.00 78 1019.9
20260508114526 47 287 0.0 0.0 0.00 0.00 0.00 79 1019.9
20260508113024 47 234 0.0 0.0 0.00 0.00 0.00 80 1019.7
20260508111520 48 234 0.0 0.0 0.00 0.00 0.00 80 1019.4
20260508110018 48 234 0.0 0.0 0.00 0.00 0.00 80 1019.1
20260508104518 48 234 0.0 0.0 0.00 0.00 0.00 80 1019.0
20260508103015 48 234 0.0 0.0 0.00 0.00 0.00 79 1018.8
20260508101511 49 234 0.0 0.0 0.00 0.00 0.00 78 1018.7
20260508100010 49 234 0.0 0.0 0.00 0.00 0.00 78 1018.5
20260508094508 49 234 0.0 0.0 0.00 0.00 0.00 79 1018.4
20260508093008 49 232 0.0 0.0 0.00 0.00 0.00 79 1018.1
20260508091511 49 232 0.0 0.0 0.00 0.00 0.00 79 1018.0
20260508090005 49 232 0.0 0.0 0.00 0.00 0.00 78 1018.0
20260508084501 49 232 0.0 0.0 0.00 0.00 0.00 78 1018.1
20260508083149 49 232 0.0 0.0 0.00 0.00 0.00 77 1017.9
20260508081557 50 232 0.0 0.0 0.00 0.00 0.00 77 1017.7
20260508080100 50 232 0.0 0.0 0.00 0.00 0.00 76 1017.6
20260508074553 50 232 0.0 0.0 0.00 0.00 0.00 75 1017.7
20260508073057 51 232 0.0 0.0 0.00 0.00 0.00 74 1017.5
20260508071551 52 232 0.0 0.0 0.00 0.00 0.00 72 1017.4
20260508070046 52 232 0.0 0.0 0.00 0.00 0.00 71 1017.5
20260508064604 53 232 0.0 0.0 0.00 0.00 0.00 70 1017.4
20260508063047 53 232 0.0 0.0 0.00 0.00 0.00 69 1017.3
20260508061545 54 232 0.0 0.0 0.00 0.00 0.00 69 1017.3
20260508060045 54 232 0.0 0.0 0.00 0.00 0.00 69 1017.3
20260508054544 55 232 0.0 0.0 0.00 0.00 0.00 68 1017.3
20260508053043 55 232 0.0 0.0 0.00 0.00 0.00 66 1017.3
20260508051542 56 232 0.0 0.0 0.00 0.00 0.00 65 1017.3
20260508050046 57 232 0.0 0.0 0.00 0.00 0.00 63 1017.2
20260508044541 58 232 0.0 0.0 0.00 0.00 0.00 62 1017.2
20260508043041 59 232 0.0 0.0 0.00 0.00 0.00 61 1017.2
20260508041540 60 232 0.0 0.0 0.00 0.00 0.00 61 1017.0
20260508040040 61 232 0.0 0.0 0.00 0.00 0.00 60 1016.9
20260508034540 63 261 0.0 0.0 0.00 0.00 0.00 58 1016.7
20260508033039 63 305 0.0 0.0 0.00 0.00 0.00 56 1016.5
20260508031538 65 161 0.0 0.0 0.00 0.00 0.00 49 1016.2
20260508030038 67 48 0.0 0.0 0.00 0.00 0.00 47 1016.2
20260508024551 68 48 0.0 0.0 0.00 0.00 0.00 46 1016.2
20260508023038 69 48 0.0 0.0 0.00 0.00 0.00 44 1016.3
20260508021536 69 48 0.0 0.0 0.00 0.00 0.00 43 1016.2
20260508020039 70 46 0.0 0.0 0.00 0.00 0.00 40 1016.2
20260508014535 71 360 0.0 0.0 0.00 0.00 0.00 40 1016.2
20260508013033 71 354 0.0 0.0 0.00 0.00 0.00 39 1016.5
20260508011546 70 344 0.0 0.0 0.00 0.00 0.00 39 1016.6
20260508010034 70 32 0.0 0.0 0.00 0.00 0.00 39 1016.6
20260508004535 70 304 0.0 0.0 0.00 0.00 0.00 39 1016.6
20260508003036 69 39 0.0 0.0 0.00 0.00 0.00 41 1016.8
20260508001527 71 120 0.0 0.0 0.00 0.00 0.00 39 1016.8
20260508000026 72 358 0.0 0.0 0.00 0.00 0.00 39 1016.9
20260507234522 71 6 0.0 0.0 0.00 0.00 0.00 40 1017.0
20260507233019 69 311 0.0 0.0 0.00 0.00 0.00 42 1017.1
20260507231516 69 20 0.0 0.0 0.00 0.00 0.00 42 1017.3
20260507230014 69 352 0.0 0.0 0.00 0.00 0.00 43 1017.5
20260507224515 69 298 0.0 0.0 0.00 0.00 0.00 45 1017.8
20260507223009 69 359 0.0 0.0 0.00 0.00 0.00 46 1017.9
20260507221505 68 339 0.0 1.0 0.00 0.00 0.00 47 1018.1
20260507220003 67 340 0.0 0.0 0.00 0.00 0.00 48 1018.3
20260507214501 68 283 0.0 1.0 0.00 0.00 0.00 47 1018.4
20260507213109 66 272 0.0 0.0 0.00 0.00 0.00 50 1018.5
20260507211557 67 347 0.0 1.0 0.00 0.00 0.00 50 1018.8
20260507210055 66 232 0.0 0.0 0.00 0.00 0.00 54 1018.9
20260507204559 64 79 0.0 0.0 0.00 0.00 0.00 57 1019.1
20260507203048 65 18 0.0 0.0 0.00 0.00 0.00 57 1019.3
20260507201544 63 11 0.0 1.0 0.00 0.00 0.00 59 1019.6
20260507200042 63 327 0.0 0.0 0.00 0.00 0.00 60 1019.6
20260507194539 62 342 0.0 1.0 0.00 0.00 0.00 60 1019.8
20260507193037 62 359 0.0 0.0 0.00 0.00 0.00 62 1019.9
20260507191533 60 325 0.0 0.0 0.00 0.00 0.00 64 1020.1
20260507190039 61 12 0.0 0.0 0.00 0.00 0.00 62 1020.3
20260507184537 60 259 0.0 0.0 0.00 0.00 0.00 62 1020.3
20260507183027 59 349 0.0 0.0 0.00 0.00 0.00 64 1020.5
20260507181523 59 327 0.0 0.0 0.00 0.00 0.00 65 1020.5
20260507180023 59 4 0.0 0.0 0.00 0.00 0.00 67 1020.7
20260507174526 58 4 0.0 1.0 0.00 0.00 0.00 66 1020.8
20260507173024 58 265 0.0 1.0 0.00 0.00 0.00 66 1020.8
20260507171514 57 312 0.0 0.0 0.00 0.00 0.00 68 1020.8
20260507170015 57 33 0.0 0.0 0.00 0.00 0.00 70 1020.7